{"data":{"norad_id":65399,"intl_designator":"2025-191W","name":"STARLINK-34836","alt_names":[],"object_type":"PAYLOAD","status":"ACTIVE","operator":null,"country":"US","launch_date":"2025-08-30","launch_site_code":"AFWTR","launch_vehicle":null,"mission":null,"orbit_class":"UNKNOWN","rcs_meters":null,"size_class":null,"mass_kg":null,"dimensions":null,"purposes":["comms"],"wikipedia_slug":null,"has_3d_model":false,"image_url":null,"decayed_at":null,"tle_current":{"epoch":"2026-09-20T21:05:39.888960Z","epoch_age_seconds":82217,"freshness":"FRESH","line1":"1 65399U 25191W   26263.87893390  .00013679  00000+0  42525-3 0  9992","line2":"2 65399  97.2852 129.8550 0001553  32.4594 327.6744 15.33445244 59695","mean_motion":15.33445244,"eccentricity":0.0001553,"inclination_deg":97.2852,"raan_deg":129.855,"arg_perigee_deg":32.4594,"mean_anomaly_deg":327.6744,"bstar":0.00042525,"rev_number":5969,"period_min":93.90618971459,"perigee_km":464.47962508754,"apogee_km":466.60527192425,"semimajor_km":6843.6794485059,"source":"CELESTRAK","updated_at":"2026-09-21T09:00:35.601408Z"}}}